Weather History for Altus, OK

Change the Weather History Date:

Sunday, June 23, 2013

  Actual Average (KLTS) Record (KLTS)
Temperature  
Mean Temperature 88 °F -  
Max Temperature 100 °F 89 °F 106 °F (2011)
Min Temperature 76 °F 68 °F 60 °F (2004)
Cooling Degree Days 23    
Growing Degree Days 38 (Base 50)    
Moisture  
Dew Point 56 °F    
Average Humidity 37    
Maximum Humidity 62    
Minimum Humidity 17    
Precipitation  
Precipitation 0.01 in - - ()
Sea Level Pressure  
Sea Level Pressure 29.87 in    
Wind  
Wind Speed 17 mph (SSE)    
Max Wind Speed 28 mph    
Max Gust Speed 34 mph    
Visibility 10 miles    
Events Rain , Thunderstorm    
Averages and records for this station are not official NWS values.
T = Trace of Precipitation, MM = Missing Value Source: NWS Daily Summary

Daily Weather History Graph

Daily Weather History Graph

Search for Another Location

Airport:

Trip Planner

Search our weather history database for the weather conditions in past years. The results will help you decide how hot, cold, wet, or windy it might be!

Date:

Astronomy

Jun. 23, 2013 Rise Set
Actual Time 6:25 AM CDT 8:54 PM CDT
Civil Twilight 5:55 AM CDT 9:23 PM CDT
Nautical Twilight 5:19 AM CDT 10:00 PM CDT
Astronomical Twilight 4:38 AM CDT 10:40 PM CDT
Moon 9:11 PM CDT (6/23) 6:41 AM CDT (6/23)
Length of Visible Light 15h 28m
Length of Day
14h 28m
Full, 100% of the Moon is Illuminated
Jun 23
Full
Jun 29
Last Quarter
Jul 8
New
Jul 15
First Quarter
Jul 22
Full

Hourly Weather History & Observations

Time (CDT) Temp. Heat Index Dew Point Humidity Pressure Visibility Wind Dir Wind Speed Gust Speed Precip Events Conditions
12:15 AM 85.3 °F 84.1 °F 56.5 °F 37% 29.87 in 10.0 mi SSE 15.0 mph 21.9 mph N/A   Clear
12:35 AM 84.2 °F 83.3 °F 56.8 °F 39% 29.88 in 10.0 mi SSE 12.7 mph 20.7 mph N/A   Clear
12:55 AM 81.9 °F 81.8 °F 57.7 °F 44% 29.89 in 10.0 mi SE 11.5 mph - N/A   Clear
1:15 AM 80.8 °F 81.1 °F 58.1 °F 46% 29.89 in 10.0 mi SE 9.2 mph - N/A   Clear
1:35 AM 80.2 °F 80.7 °F 58.1 °F 47% 29.89 in 10.0 mi SE 10.4 mph - N/A   Clear
1:55 AM 79.9 °F - 58.3 °F 48% 29.88 in 10.0 mi SE 11.5 mph - N/A   Clear
2:15 AM 79.2 °F - 58.5 °F 49% 29.88 in 10.0 mi SE 10.4 mph - N/A   Clear
2:35 AM 78.8 °F - 58.5 °F 50% 29.89 in 10.0 mi SSE 10.4 mph - N/A   Clear
2:55 AM 78.6 °F - 58.6 °F 50% 29.89 in 10.0 mi SSE 9.2 mph - N/A   Clear
3:15 AM 76.6 °F - 59.0 °F 54% 29.89 in 10.0 mi SSE 6.9 mph - N/A   Clear
3:35 AM 77.2 °F - 59.0 °F 53% 29.89 in 10.0 mi SSE 9.2 mph - N/A   Clear
3:55 AM 78.6 °F - 58.8 °F 50% 29.89 in 10.0 mi South 10.4 mph - N/A   Clear
4:15 AM 79.9 °F - 58.5 °F 48% 29.89 in 10.0 mi South 12.7 mph - N/A   Clear
4:35 AM 80.1 °F 80.7 °F 58.6 °F 48% 29.89 in 10.0 mi South 13.8 mph - N/A   Clear
4:55 AM 80.6 °F 81.0 °F 58.6 °F 47% 29.89 in 10.0 mi South 13.8 mph - N/A   Clear
5:15 AM 81.0 °F 81.3 °F 58.8 °F 47% 29.88 in 10.0 mi South 15.0 mph 20.7 mph N/A   Clear
5:35 AM 80.4 °F 81.0 °F 59.0 °F 48% 29.88 in 10.0 mi SSE 13.8 mph - N/A   Clear
5:55 AM 79.7 °F - 59.4 °F 50% 29.88 in 10.0 mi SSE 15.0 mph - N/A Thunderstorm Clear
6:15 AM 78.3 °F - 61.0 °F 55% 29.88 in 7.0 mi SSE 18.4 mph - N/A Rain , Thunderstorm Light Thunderstorms and Rain
6:35 AM 78.6 °F - 60.3 °F 53% 29.89 in 10.0 mi SSE 16.1 mph - N/A   Scattered Clouds
6:55 AM 76.8 °F - 62.1 °F 60% 29.89 in 10.0 mi South 17.3 mph 21.9 mph N/A Rain Light Rain
7:15 AM 78.3 °F - 61.7 °F 57% 29.90 in 10.0 mi South 16.1 mph - N/A   Scattered Clouds
7:35 AM 78.1 °F - 61.9 °F 57% 29.90 in 10.0 mi South 15.0 mph - N/A   Clear
7:55 AM 78.1 °F - 61.9 °F 57% 29.90 in 10.0 mi SSE 17.3 mph 21.9 mph N/A   Clear
8:15 AM 78.1 °F - 62.2 °F 58% 29.90 in 10.0 mi SSE 17.3 mph 26.5 mph N/A   Clear
8:35 AM 78.8 °F - 62.6 °F 57% 29.92 in 10.0 mi SSE 13.8 mph - N/A   Clear
8:55 AM 77.9 °F - 63.9 °F 62% 29.92 in 7.0 mi SSE 10.4 mph - 0.01 in Rain Light Rain
9:15 AM 79.2 °F - 64.0 °F 60% 29.92 in 10.0 mi SSE 12.7 mph - N/A   Scattered Clouds
9:35 AM 80.1 °F 81.6 °F 63.7 °F 57% 29.91 in 10.0 mi South 17.3 mph - N/A   Clear
9:55 AM 81.7 °F 83.0 °F 63.5 °F 54% 29.91 in 10.0 mi South 20.7 mph 27.6 mph N/A   Clear
10:15 AM 83.7 °F 84.5 °F 62.4 °F 49% 29.90 in 7.0 mi South 24.2 mph 31.1 mph N/A   Scattered Clouds
10:35 AM 85.3 °F 85.7 °F 61.9 °F 45% 29.91 in 7.0 mi South 25.3 mph 28.8 mph N/A   Clear
10:55 AM 87.4 °F 87.7 °F 61.7 °F 42% 29.91 in 7.0 mi South 24.2 mph 28.8 mph N/A   Clear
11:15 AM 88.3 °F 87.6 °F 59.0 °F 37% 29.90 in 7.0 mi South 24.2 mph 32.2 mph N/A   Clear
11:35 AM 90.0 °F 88.8 °F 57.7 °F 34% 29.90 in 7.0 mi South 26.5 mph 31.1 mph N/A   Clear
11:55 AM 91.8 °F 90.3 °F 57.2 °F 31% 29.90 in 10.0 mi South 25.3 mph 31.1 mph N/A   Clear
12:15 PM 92.5 °F 91.0 °F 57.2 °F 30% 29.89 in 10.0 mi SSW 27.6 mph 31.1 mph N/A   Clear
12:35 PM 92.5 °F 91.0 °F 57.0 °F 30% 29.88 in 10.0 mi South 18.4 mph 32.2 mph N/A   Clear
12:55 PM 93.2 °F 91.6 °F 56.5 °F 29% 29.88 in 7.0 mi South 26.5 mph 34.5 mph N/A   Clear
1:15 PM 95.0 °F 93.4 °F 56.1 °F 27% 29.87 in 10.0 mi South 25.3 mph 31.1 mph N/A   Clear
1:35 PM 95.4 °F 93.5 °F 55.6 °F 26% 29.87 in 10.0 mi South 23.0 mph 29.9 mph N/A   Clear
1:55 PM 97.3 °F 95.5 °F 55.2 °F 24% 29.86 in 10.0 mi South 23.0 mph 28.8 mph N/A   Clear
2:15 PM 97.9 °F 95.8 °F 54.7 °F 23% 29.86 in 10.0 mi South 27.6 mph 32.2 mph N/A   Clear
2:35 PM 97.5 °F 95.3 °F 54.1 °F 23% 29.85 in 10.0 mi South 25.3 mph 32.2 mph N/A   Clear
2:55 PM 97.9 °F 95.5 °F 53.2 °F 22% 29.85 in 10.0 mi South 23.0 mph 31.1 mph N/A   Clear
3:15 PM 98.4 °F - 52.5 °F 21% 29.85 in 10.0 mi South 24.2 mph 32.2 mph N/A   Clear
3:35 PM 99.1 °F - 51.6 °F 20% 29.84 in 10.0 mi South 25.3 mph 29.9 mph N/A   Clear
3:55 PM 99.5 °F - 50.9 °F 19% 29.84 in 10.0 mi South 26.5 mph 32.2 mph N/A   Clear
4:15 PM 100.4 °F - 50.2 °F 18% 29.83 in 10.0 mi South 26.5 mph 33.4 mph N/A   Clear
4:35 PM 99.7 °F - 49.3 °F 18% 29.83 in 10.0 mi South 26.5 mph 33.4 mph N/A   Clear
4:55 PM 100.2 °F - 48.2 °F 17% 29.83 in 10.0 mi South 26.5 mph 32.2 mph N/A   Clear
5:15 PM 99.9 °F - 48.6 °F 18% 29.82 in 10.0 mi SSE 24.2 mph 31.1 mph N/A   Clear
5:35 PM 100.6 °F - 48.6 °F 17% 29.82 in 10.0 mi South 23.0 mph 31.1 mph N/A   Clear
5:55 PM 99.9 °F - 50.2 °F 19% 29.82 in 10.0 mi SSE 26.5 mph 31.1 mph N/A   Clear
6:15 PM 99.7 °F - 50.5 °F 19% 29.82 in 10.0 mi South 21.9 mph 27.6 mph N/A   Clear
6:35 PM 99.1 °F - 50.0 °F 19% 29.81 in 10.0 mi South 21.9 mph 29.9 mph N/A   Clear
6:55 PM 98.4 °F - 49.8 °F 19% 29.81 in 10.0 mi SSE 24.2 mph 28.8 mph N/A   Clear
7:15 PM 98.1 °F - 49.5 °F 19% 29.82 in 10.0 mi South 25.3 mph 32.2 mph N/A   Clear
7:35 PM 97.0 °F - 50.9 °F 21% 29.82 in 10.0 mi SSE 23.0 mph 31.1 mph N/A   Clear
7:55 PM 96.1 °F - 51.3 °F 22% 29.82 in 10.0 mi South 23.0 mph 26.5 mph N/A   Clear
8:15 PM 95.4 °F - 51.6 °F 23% 29.82 in 10.0 mi SSE 18.4 mph - N/A   Clear
8:35 PM 94.1 °F - 51.8 °F 24% 29.82 in 10.0 mi South 20.7 mph 25.3 mph N/A   Clear
8:55 PM 92.3 °F 90.2 °F 54.5 °F 28% 29.83 in 10.0 mi SSE 18.4 mph - N/A   Clear
9:15 PM 91.2 °F 89.1 °F 55.0 °F 29% 29.84 in 10.0 mi SSE 18.4 mph 24.2 mph N/A   Clear
9:35 PM 90.5 °F 88.3 °F 54.0 °F 29% 29.83 in 10.0 mi SSE 21.9 mph 28.8 mph N/A   Clear
9:55 PM 90.0 °F 87.5 °F 53.1 °F 28% 29.85 in 10.0 mi SSE 21.9 mph 26.5 mph N/A   Clear
10:15 PM 89.4 °F - 52.7 °F 28% 29.86 in 10.0 mi SSE 20.7 mph 24.2 mph N/A   Clear
10:35 PM 88.7 °F - 52.7 °F 29% 29.87 in 10.0 mi SSE 19.6 mph 24.2 mph N/A   Clear
10:55 PM 88.2 °F - 52.2 °F 29% 29.89 in 10.0 mi SSE 18.4 mph 24.2 mph N/A   Clear
11:15 PM 87.6 °F - 51.3 °F 29% 29.90 in 10.0 mi SSE 19.6 mph 23.0 mph N/A   Clear
11:35 PM 86.9 °F - 50.9 °F 29% 29.90 in 10.0 mi SSE 17.3 mph 23.0 mph N/A   Clear
11:55 PM 86.5 °F - 51.1 °F 29% 29.91 in 10.0 mi SSE 18.4 mph 23.0 mph N/A   Clear